Voltar ao catálogo

STARLINK-34822

AtivoComunicaçõesVLEO
NORAD 65086·PAYLOAD·🇺🇸 United States

Lançado Aug 4, 2025 de Cape Canaveral Space Force Station

Loading…

Próximas Passagens (próximas 24 horas)

TLE

AtualizadoSource: CelesTrak SupGP

Época: Sep 14, 2026, 23:09 UTC

1 65086C 25167J   26257.96506944  .00008835  00000+0  26094-3 0  2575
2 65086  53.1590 227.2749 0001536  99.2802 196.0681 15.34395412    17

Acompanhe STARLINK-34822 em tempo real com AllMySat

Download on the App Store